Location: White Rock
(35.8256°N, 106.1876°W)
Time: 10:35:12
(UTC-06:00)

N. Korean satellite - Visible Passes

Search period start: 25 September 2018 00:00
Search period end: 05 October 2018 00:00
Orbit: 458 x 511 km, 97.2° (Epoch: 24 September)

Date Brightness Start Highest point End Pass type
(mag) Time Alt. Az. Time Alt. Az. Time Alt. Az.
25 Sep 10.6 06:22:09 10° ENE 06:23:21 11° E 06:24:32 10° ESE visible
26 Sep 9.8 19:36:28 10° SW 19:38:50 17° W 19:41:15 10° NW visible
30 Sep 9.7 19:32:13 10° SW 19:34:49 19° W 19:37:29 10° NW visible
01 Oct 8.2 19:07:00 10° S 19:10:21 41° W 19:13:48 10° NNW visible
02 Oct 10.0 06:37:12 10° NE 06:39:52 18° E 06:42:31 10° SE visible
03 Oct 10.5 19:54:37 10° WSW 19:55:18 10° W 19:56:00 10° W visible
04 Oct 9.5 19:27:56 10° SSW 19:30:46 22° W 19:33:38 10° NW visible
